Hourly Weather Mauritius

Today, 30 September, Wednesday

Time Temperature Precipitation Wind Pressure Humidity
00:00 +20°C° 0.1 mm 3 mps 725 mmHg 88%
01:00 +20°C° 0.1 mm 3 mps 725 mmHg 89%
02:00 +20°C° 0.1 mm 3 mps 725 mmHg 88%
03:00 +20°C° 0.1 mm 3 mps 725 mmHg 88%
04:00 +20°C° 0 mm 4 mps 724 mmHg 88%
05:00 +20°C° 0.1 mm 4 mps 725 mmHg 87%
06:00 +20°C° 0.1 mm 5 mps 725 mmHg 86%
07:00 +20°C° 0.1 mm 5 mps 726 mmHg 85%
08:00 +21°C° 0.1 mm 5 mps 726 mmHg 80%
09:00 +22°C° 0.1 mm 5 mps 726 mmHg 75%
10:00 +23°C° 0.1 mm 6 mps 726 mmHg 70%
11:00 +23°C° 0 mm 6 mps 726 mmHg 69%
12:00 +23°C° 0 mm 5 mps 725 mmHg 67%
13:00 +23°C° 0 mm 5 mps 725 mmHg 66%
14:00 +23°C° 0 mm 5 mps 724 mmHg 67%
15:00 +23°C° 0 mm 5 mps 724 mmHg 67%
16:00 +22°C° 0 mm 5 mps 724 mmHg 68%
17:00 +22°C° 0 mm 4 mps 724 mmHg 71%
18:00 +21°C° 0 mm 4 mps 724 mmHg 74%
19:00 +21°C° 0 mm 4 mps 724 mmHg 78%
20:00 +20°C° 0 mm 4 mps 725 mmHg 78%
21:00 +20°C° 0 mm 3 mps 725 mmHg 79%
22:00 +20°C° 0 mm 3 mps 725 mmHg 80%
23:00 +20°C° 0 mm 3 mps 725 mmHg 81%

Tomorrow, 1 October, Thursday

Time Temperature Precipitation Wind Pressure Humidity
00:00 +19°C° 0 mm 3 mps 724 mmHg 81%
01:00 +19°C° 0 mm 2 mps 724 mmHg 82%
02:00 +19°C° 0 mm 2 mps 724 mmHg 82%
03:00 +19°C° 0 mm 2 mps 724 mmHg 82%
04:00 +18°C° 0 mm 2 mps 724 mmHg 82%
05:00 +19°C° 0 mm 2 mps 724 mmHg 80%
06:00 +19°C° 0 mm 2 mps 724 mmHg 78%
07:00 +19°C° 0 mm 2 mps 725 mmHg 77%
08:00 +20°C° 0 mm 2 mps 725 mmHg 70%
09:00 +23°C° 0 mm 2 mps 725 mmHg 64%
10:00 +24°C° 0 mm 2 mps 726 mmHg 58%
11:00 +24°C° 0 mm 2 mps 725 mmHg 57%
12:00 +24°C° 0 mm 3 mps 725 mmHg 56%
13:00 +25°C° 0 mm 3 mps 724 mmHg 55%
14:00 +24°C° 0 mm 3 mps 724 mmHg 57%
15:00 +24°C° 0 mm 3 mps 724 mmHg 59%
16:00 +22°C° 0 mm 3 mps 723 mmHg 61%
17:00 +22°C° 0 mm 3 mps 723 mmHg 64%
18:00 +21°C° 0 mm 3 mps 724 mmHg 66%
19:00 +21°C° 0 mm 2 mps 724 mmHg 68%
20:00 +21°C° 0 mm 3 mps 724 mmHg 72%
21:00 +20°C° 0 mm 3 mps 724 mmHg 75%
22:00 +20°C° 0 mm 3 mps 725 mmHg 78%
23:00 +20°C° 0 mm 3 mps 724 mmHg 80%

Day after tomorrow, 2 October, Friday

Time Temperature Precipitation Wind Pressure Humidity
00:00 +19°C° 0 mm 3 mps 724 mmHg 81%
01:00 +19°C° 0 mm 3 mps 724 mmHg 83%
02:00 +19°C° 0 mm 3 mps 724 mmHg 83%
03:00 +19°C° 0 mm 3 mps 723 mmHg 84%
04:00 +19°C° 0 mm 3 mps 723 mmHg 84%
05:00 +19°C° 0 mm 3 mps 724 mmHg 83%
06:00 +20°C° 0 mm 3 mps 724 mmHg 82%
07:00 +20°C° 0 mm 3 mps 724 mmHg 81%
08:00 +21°C° 0 mm 3 mps 724 mmHg 75%
09:00 +22°C° 0 mm 3 mps 724 mmHg 70%
10:00 +25°C° 0 mm 2 mps 725 mmHg 64%
11:00 +25°C° 0 mm 2 mps 724 mmHg 62%
12:00 +26°C° 0 mm 2 mps 724 mmHg 60%
13:00 +26°C° 0 mm 2 mps 724 mmHg 58%
14:00 +26°C° 0 mm 2 mps 724 mmHg 62%
15:00 +25°C° 0 mm 2 mps 723 mmHg 66%
16:00 +24°C° 0 mm 2 mps 723 mmHg 70%
17:00 +24°C° 0 mm 2 mps 723 mmHg 73%
18:00 +23°C° 0 mm 2 mps 724 mmHg 75%
19:00 +23°C° 0 mm 1 mps 724 mmHg 78%
20:00 +23°C° 0 mm 1 mps 724 mmHg 79%
21:00 +23°C° 0 mm 1 mps 724 mmHg 80%
22:00 +21°C° 0 mm 2 mps 724 mmHg 81%
23:00 +22°C° 0 mm 1 mps 724 mmHg 83%

3 October, Saturday

Time Temperature Precipitation Wind Pressure Humidity
00:00 +22°C° 0 mm 1 mps 724 mmHg 84%
01:00 +22°C° 0 mm 1 mps 724 mmHg 85%
02:00 +22°C° 0 mm 1 mps 723 mmHg 85%
03:00 +21°C° 0 mm 1 mps 723 mmHg 86%
04:00 +19°C° 0 mm 0 mps 723 mmHg 86%
05:00 +21°C° 0 mm 1 mps 723 mmHg 84%
06:00 +22°C° 0 mm 1 mps 724 mmHg 82%
07:00 +22°C° 0 mm 1 mps 724 mmHg 80%
08:00 +23°C° 0 mm 2 mps 724 mmHg 74%
09:00 +25°C° 0 mm 2 mps 725 mmHg 68%
10:00 +26°C° 0 mm 3 mps 725 mmHg 62%
11:00 +26°C° 0 mm 3 mps 724 mmHg 62%
12:00 +26°C° 0 mm 3 mps 724 mmHg 63%
13:00 +26°C° 0 mm 3 mps 724 mmHg 63%
14:00 +25°C° 0 mm 3 mps 724 mmHg 65%
15:00 +25°C° 0 mm 2 mps 724 mmHg 68%
16:00 +24°C° 0 mm 2 mps 723 mmHg 70%
17:00 +24°C° 0 mm 2 mps 724 mmHg 73%
18:00 +24°C° 0 mm 1 mps 724 mmHg 75%
19:00 +23°C° 0 mm 1 mps 724 mmHg 78%
20:00 +23°C° 0 mm 1 mps 724 mmHg 79%
21:00 +23°C° 0 mm 1 mps 725 mmHg 80%
22:00 +23°C° 0 mm 1 mps 725 mmHg 81%
23:00 +21°C° 0 mm 2 mps 724 mmHg 82%

4 October, Sunday

Time Temperature Precipitation Wind Pressure Humidity
00:00 +21°C° 0 mm 2 mps 724 mmHg 82%
01:00 +21°C° 0 mm 2 mps 724 mmHg 82%
02:00 +21°C° 0 mm 2 mps 723 mmHg 84%
03:00 +20°C° 0 mm 2 mps 723 mmHg 86%
04:00 +20°C° 0 mm 2 mps 723 mmHg 87%
05:00 +20°C° 0 mm 2 mps 723 mmHg 86%
06:00 +20°C° 0 mm 2 mps 724 mmHg 84%
07:00 +21°C° 0 mm 2 mps 724 mmHg 83%
08:00 +23°C° 0 mm 2 mps 724 mmHg 76%
09:00 +24°C° 0 mm 2 mps 725 mmHg 70%
10:00 +25°C° 0 mm 2 mps 725 mmHg 63%
11:00 +25°C° 0 mm 3 mps 725 mmHg 63%
12:00 +25°C° 0 mm 3 mps 724 mmHg 64%
13:00 +25°C° 0 mm 3 mps 724 mmHg 64%
14:00 +25°C° 0 mm 3 mps 724 mmHg 66%
15:00 +25°C° 0 mm 2 mps 723 mmHg 67%
16:00 +24°C° 0 mm 2 mps 723 mmHg 69%
17:00 +24°C° 0 mm 2 mps 723 mmHg 72%
18:00 +23°C° 0 mm 2 mps 724 mmHg 74%
19:00 +23°C° 0 mm 2 mps 724 mmHg 76%
20:00 +23°C° 0 mm 2 mps 724 mmHg 78%
21:00 +21°C° 0 mm 3 mps 724 mmHg 79%
22:00 +21°C° 0 mm 3 mps 724 mmHg 81%
23:00 +21°C° 0 mm 3 mps 724 mmHg 82%

5 October, Monday

Time Temperature Precipitation Wind Pressure Humidity
00:00 +21°C° 0 mm 4 mps 724 mmHg 84%
01:00 +20°C° 0 mm 4 mps 723 mmHg 85%
02:00 +20°C° 0 mm 4 mps 723 mmHg 86%
03:00 +20°C° 0 mm 5 mps 723 mmHg 86%
04:00 +20°C° 0 mm 5 mps 723 mmHg 87%
05:00 +20°C° 0 mm 5 mps 723 mmHg 85%
06:00 +21°C° 0 mm 5 mps 724 mmHg 84%
07:00 +21°C° 0 mm 5 mps 724 mmHg 82%
08:00 +22°C° 0 mm 4 mps 725 mmHg 79%
09:00 +23°C° 0 mm 4 mps 725 mmHg 75%
10:00 +25°C° 0 mm 4 mps 725 mmHg 71%
11:00 +25°C° 0 mm 4 mps 724 mmHg 68%
12:00 +26°C° 0 mm 4 mps 724 mmHg 65%
13:00 +26°C° 0 mm 4 mps 724 mmHg 62%
14:00 +26°C° 0 mm 5 mps 723 mmHg 63%
15:00 +26°C° 0 mm 5 mps 723 mmHg 65%
16:00 +26°C° 0 mm 5 mps 723 mmHg 67%
17:00 +25°C° 0 mm 5 mps 723 mmHg 71%
18:00 +23°C° 0 mm 5 mps 724 mmHg 76%
19:00 +22°C° 0 mm 5 mps 724 mmHg 80%
20:00 +22°C° 0 mm 5 mps 724 mmHg 81%
21:00 +22°C° 0 mm 5 mps 725 mmHg 82%
22:00 +22°C° 0 mm 5 mps 725 mmHg 83%
23:00 +21°C° 0 mm 5 mps 725 mmHg 84%
Show more

We Need Your Consent

Meteoprog and our Service Providers may store and access personal data such as cookies, device identifiers or other similar technologies on your device and process such data to personalise content and ads, as well as provide social media features and to analyse the traffic.

  • Store and/or access information on your device

    Cookies, device identifiers or other information can be stored or accessed on your device for the purposes indicated above.

  • Personalised ads and content, ad and content measurement, audience insights, and products development

    Ads and content can be personalised based on a profile. More data can be added to better personalise ads and content. Ad and content performance can be measured. Insights about the audience who saw the ads and content can be derived. Such data can be used to develop or improve user’s experience, systems and software.

By clicking ‘I Agree’ you will allow the use of indicated cookies, device identifiers, web beacons or other similar technologies. Your settings can be changed in the browser on your device.

For certain purposes, legitimate interests may be relied on, rather than consent. You can read more about this in our Privacy and Cookie Policy.